TimeCET,TemperatureF,Dew PointF,Humidity,Sea Level PressureIn,VisibilityMPH,Wind Direction,Wind SpeedMPH,Gust SpeedMPH,PrecipitationIn,Events,Conditions,WindDirDegrees,DateUTC
12:00 AM,48.2,39.2,71,29.44,6.2,SW,17.3,-,N/A,,Scattered Clouds,230,2012-10-31 23:00:00
12:30 AM,46.4,39.2,76,29.44,6.2,SW,17.3,-,N/A,,Scattered Clouds,230,2012-10-31 23:30:00
1:00 AM,46.4,39.2,76,29.44,6.2,SW,10.4,-,N/A,,Scattered Clouds,220,2012-11-01 00:00:00
1:30 AM,46.4,39.2,76,29.44,6.2,SW,13.8,-,N/A,,Scattered Clouds,220,2012-11-01 00:30:00
2:00 AM,46.4,39.2,76,29.44,6.2,SSW,12.7,-,N/A,,Scattered Clouds,210,2012-11-01 01:00:00
2:30 AM,46.4,39.2,76,29.44,6.2,SW,13.8,-,N/A,,Scattered Clouds,220,2012-11-01 01:30:00
3:00 AM,48.2,39.2,71,29.44,6.2,SSW,9.2,-,N/A,,Mostly Cloudy,200,2012-11-01 02:00:00
3:30 AM,46.4,39.2,76,29.44,6.2,South,5.8,-,N/A,,Scattered Clouds,180,2012-11-01 02:30:00
4:00 AM,48.2,39.2,71,29.44,6.2,SW,10.4,23.0,N/A,,Scattered Clouds,230,2012-11-01 03:00:00
4:30 AM,48.2,41.0,76,29.42,6.2,SW,15.0,26.5,N/A,,Partly Cloudy,230,2012-11-01 03:30:00
5:00 AM,48.2,39.2,71,29.44,6.2,WSW,19.6,-,N/A,,Scattered Clouds,240,2012-11-01 04:00:00
5:30 AM,48.2,41.0,76,29.42,6.2,SW,15.0,-,N/A,,Scattered Clouds,230,2012-11-01 04:30:00
6:00 AM,48.2,41.0,76,29.44,6.2,WSW,17.3,28.8,N/A,,Scattered Clouds,240,2012-11-01 05:00:00
6:30 AM,48.2,41.0,76,29.44,6.2,WSW,17.3,28.8,N/A,,Scattered Clouds,240,2012-11-01 05:30:00
7:00 AM,48.2,41.0,76,29.44,6.2,SW,15.0,32.2,N/A,,Scattered Clouds,230,2012-11-01 06:00:00
7:30 AM,48.2,41.0,76,29.44,6.2,WSW,13.8,26.5,N/A,,Scattered Clouds,240,2012-11-01 06:30:00
8:00 AM,48.2,41.0,76,29.44,6.2,SW,15.0,28.8,N/A,,Scattered Clouds,230,2012-11-01 07:00:00
8:30 AM,48.2,41.0,76,29.44,6.2,SW,19.6,32.2,N/A,,Scattered Clouds,230,2012-11-01 07:30:00
9:00 AM,50.0,41.0,71,29.44,6.2,SW,23.0,35.7,N/A,,Scattered Clouds,230,2012-11-01 08:00:00
9:30 AM,51.8,42.8,71,29.47,6.2,SW,20.7,33.4,N/A,,Scattered Clouds,230,2012-11-01 08:30:00
10:00 AM,51.8,42.8,71,29.47,6.2,SW,25.3,39.1,N/A,,Scattered Clouds,230,2012-11-01 09:00:00
10:30 AM,53.6,42.8,67,29.47,6.2,SW,24.2,-,N/A,,Scattered Clouds,230,2012-11-01 09:30:00
11:00 AM,53.6,42.8,67,29.47,6.2,SW,24.2,35.7,N/A,,Scattered Clouds,230,2012-11-01 10:00:00
11:30 AM,55.4,42.8,63,29.47,6.2,SW,26.5,-,N/A,,Scattered Clouds,230,2012-11-01 10:30:00
12:00 PM,53.6,42.8,67,29.50,6.2,WSW,27.6,41.4,N/A,,Mostly Cloudy,240,2012-11-01 11:00:00
12:30 PM,55.4,42.8,63,29.50,6.2,WSW,25.3,-,N/A,,Mostly Cloudy,240,2012-11-01 11:30:00
1:00 PM,53.6,44.6,72,29.50,6.2,WSW,25.3,41.4,N/A,,Mostly Cloudy,240,2012-11-01 12:00:00
1:30 PM,55.4,44.6,67,29.50,6.2,WSW,25.3,36.8,N/A,,Mostly Cloudy,240,2012-11-01 12:30:00
2:00 PM,55.4,44.6,67,29.50,6.2,WSW,21.9,-,N/A,,Mostly Cloudy,240,2012-11-01 13:00:00
2:30 PM,55.4,46.4,72,29.50,6.2,SW,17.3,-,N/A,,Mostly Cloudy,230,2012-11-01 13:30:00
3:00 PM,55.4,46.4,72,29.53,6.2,SW,17.3,-,N/A,,Mostly Cloudy,230,2012-11-01 14:00:00
3:30 PM,53.6,48.2,82,29.53,6.2,SW,18.4,-,N/A,,Mostly Cloudy,220,2012-11-01 14:30:00
4:30 PM,53.6,48.2,82,29.53,6.2,SW,10.4,-,N/A,,Mostly Cloudy,220,2012-11-01 15:30:00
5:00 PM,53.6,48.2,82,29.56,6.2,SW,12.7,-,N/A,,Mostly Cloudy,230,2012-11-01 16:00:00
5:30 PM,51.8,46.4,82,29.56,6.2,North,9.2,23.0,N/A,,Mostly Cloudy,350,2012-11-01 16:30:00
6:00 PM,50.0,46.4,87,29.59,6.2,NW,10.4,-,N/A,,Mostly Cloudy,320,2012-11-01 17:00:00
6:30 PM,50.0,46.4,87,29.62,5.0,Variable,1.2,-,N/A,Rain,Light Rain,0,2012-11-01 17:30:00
7:00 PM,48.2,46.4,93,29.65,6.2,East,1.2,-,N/A,,Mostly Cloudy,100,2012-11-01 18:00:00
7:30 PM,50.0,46.4,87,29.65,6.2,Calm,Calm,-,N/A,,Mostly Cloudy,0,2012-11-01 18:30:00
8:00 PM,48.2,46.4,93,29.68,6.2,Calm,Calm,-,N/A,,Mostly Cloudy,0,2012-11-01 19:00:00
8:30 PM,48.2,46.4,93,29.68,6.2,Calm,Calm,-,N/A,,Mostly Cloudy,0,2012-11-01 19:30:00
9:00 PM,48.2,46.4,93,29.71,6.2,Calm,Calm,-,N/A,Rain,Light Rain,0,2012-11-01 20:00:00
9:30 PM,48.2,46.4,93,29.71,6.2,Calm,Calm,-,N/A,Rain,Light Rain,0,2012-11-01 20:30:00
10:00 PM,46.4,46.4,100,29.71,6.2,Calm,Calm,-,N/A,,Mostly Cloudy,0,2012-11-01 21:00:00
10:30 PM,46.4,46.4,100,29.71,6.2,Variable,1.2,-,N/A,,Mostly Cloudy,0,2012-11-01 21:30:00
11:00 PM,44.6,44.6,100,29.74,6.2,NNE,2.3,-,N/A,,Mostly Cloudy,30,2012-11-01 22:00:00
11:30 PM,46.4,46.4,100,29.74,6.2,Variable,2.3,-,N/A,Rain,Light Rain,0,2012-11-01 22:30:00